Flag for USA

Past Weather in Bryan – College Station, Texas, USA — Yesterday and Last 2 Weeks

Now
93 °F

Scattered clouds.


Feels Like: 102 °F
Forecast: 95 / 79 °F
Wind: 14 mph from South

Location: Easterwood Field

Current Time: Jul 9, 2020 at 1:58:12 pm

Latest Report: Jul 9, 2020 at 12:53 pm


Visibility: 10 mi

Pressure: 29.90 "Hg

Humidity: 52%

Dew Point: 73 °F

Location of Bryan – College StationLocation

Past Weather in Bryan – College Station — Graph

°F

Bryan – College Station Temperature Yesterday

Maximum temperature yesterday: 96 °F (at 5:53 pm)
Minimum temperature yesterday: 77 °F (at 2:26 am)
Average temperature yesterday: 85 °F

High & Low Weather Summary for the Past Weeks

 TemperatureHumidityPressure
High96 °F (Jul 2, 3:53 pm)97% (Jun 25, 5:02 am)30.10 "Hg (Jun 25, 5:02 am)
Low73 °F (Jul 4, 4:53 am)35% (Jul 4, 3:53 pm)29.77 "Hg (Jul 5, 6:53 pm)
Average83 °F77%29.91 "Hg
* Reported Jun 24 12:53 pm — Jul 9 12:53 pm, Bryan – College Station. Weather by CustomWeather, © 2020

Note: Actual official high and low records may vary slightly from our data, if they occured in-between our weather recording intervals... More about our weather records

Bryan – College Station Weather History for the Previous 24 Hours

Scroll right to see more
 ConditionsComfort  
Time TempWeatherWind HumidityBarometerVisibility
12:53 pm
Thu, Jul 9
93 °FScattered clouds.14 mph52%29.90 "Hg10 mi
11:53 am91 °FScattered clouds.15 mph57%29.90 "Hg10 mi
10:53 am89 °FPassing clouds.14 mph61%29.90 "Hg10 mi
10:32 am86 °FPartly sunny.10 mph70%29.92 "Hg10 mi
9:53 am87 °FSunny.13 mph67%29.90 "Hg10 mi
8:53 am84 °FBroken clouds.13 mph80%29.90 "Hg9 mi
8:20 am82 °FMostly cloudy.9 mph85%29.92 "Hg9 mi
7:39 am81 °FPartly sunny.6 mph88%29.92 "Hg8 mi
6:53 am80 °FMostly cloudy.5 mph90%29.89 "Hg7 mi
6:35 am80 °FMostly cloudy.3 mph90%29.91 "Hg9 mi
6:23 am79 °FMostly cloudy.5 mph94%29.91 "Hg9 mi
5:53 am79 °FPartly cloudy.6 mph94%29.88 "Hg9 mi
5:29 am79 °FPassing clouds.7 mph94%29.90 "Hg9 mi
4:53 am80 °FPassing clouds.7 mph90%29.88 "Hg9 mi
3:53 am81 °FOvercast.12 mph88%29.87 "Hg10 mi
2:53 am81 °FOvercast.13 mph88%29.87 "Hg10 mi
1:53 am80 °FOvercast.12 mph87%29.88 "Hg10 mi
1:36 am80 °FPassing clouds.10 mph87%29.90 "Hg10 mi
12:53 am80 °FClear.12 mph85%29.88 "Hg10 mi
11:53 pm
Wed, Jul 8
82 °FClear.15 mph77%29.88 "Hg10 mi
10:53 pm84 °FClear.16 mph72%29.87 "Hg10 mi
9:53 pm86 °FClear.16 mph67%29.86 "Hg10 mi
8:53 pm88 °FClear.12 mph63%29.84 "Hg10 mi
7:53 pm91 °FSunny.14 mph54%29.83 "Hg10 mi
6:53 pm94 °FSunny.13 mph46%29.82 "Hg10 mi
5:53 pm96 °FSunny.13 mph44%29.83 "Hg10 mi
4:55 pm95 °FScattered clouds.15 mph47%29.86 "Hg10 mi
3:53 pm94 °FPassing clouds.14 mph51%29.86 "Hg10 mi
2:53 pm94 °FSunny.14 mph51%29.88 "Hg10 mi
1:53 pm93 °FScattered clouds.10 mph52%29.90 "Hg10 mi
Weather by CustomWeather, © 2020

See weather overview